Location: Beneden-Haastrecht
(52.0012°N, 4.7557°E)
Time: 10:47:03
(UTC+00:00)

X-37B - Pass Details

Date: 24 January 2021
Orbit: 383 x 391 km, 45.0° (Epoch: 27 February)

Event Time Altitude Azimuth Distance (km) Brightness Sun altitude
Rises 18:24:37 0° 249° (WSW) 2,273 5.9 -19.7°
Reaches altitude 10° 18:26:55 10° 235° (SW) 1,420 4.3 -20.0°
Enters shadow 18:29:28 23° 182° (S) 874 2.4 -20.4°
